Regional Weather Roundup
Issued by NWS

Home | Current Version | Previous Version | Graphics & Text | Print | Product List | Glossary On
Versions: 1 2 3 4 5 6 7 8 9 10 11 12 13 14 15 16 17 18 19 20 21 22 23 24 25 26 27 28 29 30 31 32 33 34 35 36 37 38 39 40 41 42 43 44 45 46 47 48 49 50
000
ASUS43 KDTX 220501
RWRMI
MICHIGAN HOURLY REGIONAL WEATHER ROUNDUP
NATIONAL WEATHER SERVICE DETROIT/PONTIAC MI
100 AM EDT MON SEP 22 2014

NOTE: "FAIR" INDICATES FEW OR NO CLOUDS BELOW 12,000 FEET WITH NO
SIGNIFICANT WEATHER AND/OR OBSTRUCTION TO VISIBILITY.

MIZ047>049-052>055-059>063-066>070-074>076-081>083-220600-
SOUTHEAST LOWER MICHIGAN

CITY           SKY/WX    TMP DP  RH WIND       PRES   REMARKS
ADRIAN         CLOUDY    49  41  74 N17G23    30.07R
ALMA           CLOUDY    48  39  72 NW9G16    30.08S
ANN ARBOR      CLOUDY    48  40  73 NW10      30.05R
BAD AXE        CLOUDY    48  44  85 NW9       30.00R
CARO           CLOUDY    48  42  79 NW9       30.03R
DETROIT CITY   CLOUDY    53  41  63 N8G20     30.03R
DETROIT        CLOUDY    50  43  77 W10       30.04R
FLINT          CLOUDY    49  38  65 NW8       30.05R
GROSSE ILE     CLOUDY    52  45  76 NW14G20   30.02R
HILLSDALE      CLOUDY    49  41  75 NW9       30.07R
HOWELL         CLOUDY    46  39  74 NW9       30.05R

CITY           SKY/WX    TMP DP  RH WIND       PRES   REMARKS
JACKSON        CLOUDY    47  39  74 N12G21    30.08R
LAMBERTVILLE   CLOUDY    50  43  76 N9        30.05R
LANSING        CLOUDY    47  38  71 NW9       30.09R
LAPEER         CLOUDY    46  42  86 NW8       30.02S
MASON          CLOUDY    47  39  73 NW12      30.07S
MONROE         RAIN      52  45  76 NW13      30.03R
MT. CLEMENS    CLOUDY    49  44  81 NW10      29.99R
PONTIAC        CLOUDY    47  40  76 NW14      30.02R
PORT HOPE        N/A     53  43  68 VRB7      29.97R
PORT HURON     CLOUDY    48  45  87 NW9       29.99R
TRI CITIES     CLOUDY    49  38  65 NW15      30.07R
TROY           CLOUDY    51  41  69 NW13      30.04R
SAGINAW HB     CLOUDY    48  37  66 NW10G17   30.04S
$$
MIZ043>046-050>051-056>058-064>065-071>073-077>080-220600-
SOUTHWEST LOWER MICHIGAN

CITY           SKY/WX    TMP DP  RH WIND       PRES   REMARKS
BATTLE CREEK   CLOUDY    48  38  68 N9        30.10R
BENTON HARBOR  CLOUDY    52  44  74 N9        30.11S
BIG RAPIDS     CLOUDY    46  41  84 NW7       30.09S
COLDWATER      CLOUDY    49  40  71 N13G18    30.09R
FREMONT        CLOUDY    47  37  68 N7        30.11S
HOLLAND        CLOUDY    49  40  71 NW6       30.13S
GRAND RAPIDS   CLOUDY    48  39  71 N13       30.11R
IONIA          CLOUDY    47  40  76 N6        30.09R
KALAMAZOO      MOCLDY    45  39  79 N13       30.11R
LUDINGTON      CLOUDY    49  42  75 N12G22    30.13R
MARSHALL       CLOUDY    46  36  69 NW3       30.09R
MOUNT PLEASANT CLOUDY    47  39  73 NW5       30.07S
MUSKEGON       CLOUDY    49  39  68 N14G21    30.13S
SOUTH HAVEN    CLOUDY    49  42  75 NE9       30.12S
$$
MIZ016>042-220600-
NORTHERN LOWER MICHIGAN

CITY           SKY/WX    TMP DP  RH WIND       PRES   REMARKS
ALPENA         CLOUDY    48  39  71 NW9       30.02S
BEAVER ISLAND  PTCLDY    46  40  81 N7        30.09F
BELLAIRE       CLOUDY    48  41  75 NW3       30.08S
CADILLAC       CLOUDY    44  40  85 NW6       30.08R
CHARLEVOIX     CLOUDY    50  40  68 N13G21    30.11R
FRANKFORT      MOCLDY    49  39  67 N10G17    30.12R
GAYLORD        CLOUDY    45  39  79 NW6       30.05R
GRAYLING       CLOUDY    46  40  80 NW7       30.06S
HARBOR SPRINGS CLOUDY    48  40  72 NW5       30.07S
HOUGHTON LAKE  CLOUDY    46  39  76 NW7       30.06S
MANISTEE       CLOUDY    48  37  66 N7        30.13R
OSCODA         CLOUDY    46  42  83 NW7       30.01R
PELLSTON       CLOUDY    48  40  73 NW13      30.07R
ROGERS CITY    CLOUDY    48  40  71 N14G22    30.04S
TRAVERSE CITY  CLOUDY    50  38  63 NW9       30.09R
$$
MIZ007>008-015-220600-
EASTERN UPPER MICHIGAN

CITY           SKY/WX    TMP DP  RH WIND       PRES   REMARKS
KINROSS        CLOUDY    46  37  71 N7        30.05S
MACKINAC ISLAN CLOUDY    47  41  77 NW12      30.05S
NEWBERRY       CLOUDY    42  38  86 NW7       30.07F
S. S. MARIE    CLOUDY    46  34  62 N8        30.05S
$$
MIZ004>006-011>014-085-220600-
CENTRAL UPPER MICHIGAN

CITY           SKY/WX    TMP DP  RH WIND       PRES   REMARKS
MANISTIQUE     CLEAR     39  37  92 NW9       30.10F WCI  33
ESCANABA       CLEAR     39  36  87 NW6       30.14S WCI  35
MENOMINEE      CLEAR     39  36  87 CALM      30.16S
SAWYER-GWINN   CLEAR     37  35  93 W6        30.13F WCI  32
$$
MIZ001>003-009>011-084-220600-
WESTERN UPPER MICHIGAN

CITY           SKY/WX    TMP DP  RH WIND       PRES   REMARKS
IRON MOUNTAIN  CLEAR     35  33  92 CALM      30.14F
HOUGHTON       FOG       37  35  92 CALM      30.12S VSB 1/4
COPPER HARBOR    N/A     40  37  89 SW6       30.12F
IRONWOOD       CLEAR     39  39 100 W5        30.15S
$$

ABBREVIATIONS USED IN REMARKS
   TC - TEMPERATURE IN CELSIUS
  WCI - WIND CHILL INDEX
   HX - HEAT INDEX
  VSB - VISIBILITY



USA.gov is the U.S. government's official web portal to all federal, state and local government web resources and services.